Meteo orario Aars

Oggi, 9 Marzo, Martedi

Tempo Temperatura Precipitazioni Vento Pressione Umidità
00:00 -2°C° 0 mm 2 m/s 763 mm Hg 59%
01:00 -4°C° 0 mm 3 m/s 763 mm Hg 57%
02:00 -3°C° 0 mm 2 m/s 763 mm Hg 58%
03:00 -3°C° 0 mm 2 m/s 762 mm Hg 59%
04:00 -3°C° 0 mm 2 m/s 762 mm Hg 60%
05:00 -3°C° 0 mm 2 m/s 762 mm Hg 60%
06:00 -3°C° 0 mm 2 m/s 762 mm Hg 61%
07:00 -3°C° 0 mm 2 m/s 761 mm Hg 61%
08:00 -1°C° 0 mm 2 m/s 761 mm Hg 56%
09:00 +1°C° 0 mm 2 m/s 762 mm Hg 52%
10:00 +2°C° 0 mm 2 m/s 762 mm Hg 47%
11:00 +3°C° 0 mm 2 m/s 762 mm Hg 45%
12:00 +4°C° 0 mm 2 m/s 762 mm Hg 42%
13:00 +5°C° 0 mm 2 m/s 762 mm Hg 40%
14:00 +5°C° 0 mm 2 m/s 762 mm Hg 41%
15:00 +5°C° 0 mm 2 m/s 762 mm Hg 42%
16:00 +5°C° 0 mm 2 m/s 762 mm Hg 43%
17:00 +3°C° 0 mm 2 m/s 762 mm Hg 51%
18:00 +2°C° 0 mm 2 m/s 762 mm Hg 58%
19:00 +1°C° 0 mm 1 m/s 762 mm Hg 66%
20:00 +1°C° 0 mm 1 m/s 762 mm Hg 67%
21:00 0°C° 0 mm 1 m/s 762 mm Hg 69%
22:00 0°C° 0 mm 1 m/s 762 mm Hg 70%
23:00 0°C° 0 mm 1 m/s 762 mm Hg 70%

Domani, 10 Marzo, Mercoledi

Tempo Temperatura Precipitazioni Vento Pressione Umidità
00:00 0°C° 0 mm 1 m/s 762 mm Hg 70%
01:00 0°C° 0 mm 1 m/s 762 mm Hg 70%
02:00 0°C° 0 mm 1 m/s 762 mm Hg 71%
03:00 -2°C° 0 mm 2 m/s 761 mm Hg 72%
04:00 -2°C° 0 mm 2 m/s 761 mm Hg 73%
05:00 -2°C° 0 mm 3 m/s 761 mm Hg 75%
06:00 -2°C° 0 mm 3 m/s 761 mm Hg 77%
07:00 -2°C° 0 mm 3 m/s 761 mm Hg 79%
08:00 -2°C° 0 mm 4 m/s 761 mm Hg 72%
09:00 -1°C° 0 mm 5 m/s 760 mm Hg 64%
10:00 +1°C° 0 mm 6 m/s 760 mm Hg 56%
11:00 0°C° 0 mm 7 m/s 759 mm Hg 54%
12:00 +2°C° 0 mm 7 m/s 759 mm Hg 53%
13:00 +3°C° 0 mm 7 m/s 759 mm Hg 51%
14:00 +3°C° 0 mm 7 m/s 758 mm Hg 56%
15:00 +2°C° 0 mm 7 m/s 758 mm Hg 61%
16:00 +2°C° 0 mm 7 m/s 757 mm Hg 66%
17:00 0°C° 0.2 mm 8 m/s 756 mm Hg 75%
18:00 0°C° 0.2 mm 8 m/s 756 mm Hg 84%
19:00 -1°C° 0.2 mm 8 m/s 755 mm Hg 93%
20:00 0°C° 0.4 mm 8 m/s 754 mm Hg 93%
21:00 0°C° 0.4 mm 9 m/s 753 mm Hg 93%
22:00 +1°C° 0.4 mm 9 m/s 752 mm Hg 93%
23:00 +1°C° 0.5 mm 9 m/s 751 mm Hg 93%

Dopodomani, 11 Marzo, Giovedi

Tempo Temperatura Precipitazioni Vento Pressione Umidità
00:00 +1°C° 0.5 mm 10 m/s 750 mm Hg 92%
01:00 +1°C° 0.5 mm 10 m/s 749 mm Hg 91%
02:00 +1°C° 1.4 mm 10 m/s 747 mm Hg 91%
03:00 +1°C° 1.4 mm 11 m/s 746 mm Hg 91%
04:00 +2°C° 1.4 mm 11 m/s 744 mm Hg 91%
05:00 +2°C° 3 mm 11 m/s 743 mm Hg 91%
06:00 +2°C° 3 mm 11 m/s 742 mm Hg 91%
07:00 +2°C° 3 mm 11 m/s 741 mm Hg 91%
08:00 +3°C° 0.9 mm 10 m/s 740 mm Hg 92%
09:00 +3°C° 0.9 mm 9 m/s 739 mm Hg 92%
10:00 +4°C° 0.9 mm 8 m/s 739 mm Hg 92%
11:00 +5°C° 0.5 mm 8 m/s 738 mm Hg 89%
12:00 +5°C° 0.5 mm 8 m/s 738 mm Hg 86%
13:00 +5°C° 0.5 mm 9 m/s 737 mm Hg 83%
14:00 +5°C° 0.3 mm 9 m/s 737 mm Hg 84%
15:00 +3°C° 0.3 mm 9 m/s 737 mm Hg 85%
16:00 +3°C° 0.3 mm 10 m/s 736 mm Hg 87%
17:00 +3°C° 0.3 mm 10 m/s 737 mm Hg 86%
18:00 +2°C° 0.3 mm 10 m/s 737 mm Hg 85%
19:00 +2°C° 0.3 mm 10 m/s 737 mm Hg 84%
20:00 +2°C° 0 mm 9 m/s 738 mm Hg 84%
21:00 +2°C° 0 mm 8 m/s 738 mm Hg 84%
22:00 +1°C° 0 mm 8 m/s 739 mm Hg 83%
23:00 +1°C° 0.1 mm 8 m/s 739 mm Hg 83%

12 Marzo, Venerdi

Tempo Temperatura Precipitazioni Vento Pressione Umidità
00:00 +1°C° 0.1 mm 8 m/s 739 mm Hg 84%
01:00 +2°C° 0.1 mm 8 m/s 740 mm Hg 84%
02:00 +1°C° 0 mm 8 m/s 740 mm Hg 82%
03:00 +1°C° 0 mm 8 m/s 740 mm Hg 81%
04:00 +1°C° 0 mm 8 m/s 740 mm Hg 80%
05:00 0°C° 0.2 mm 8 m/s 741 mm Hg 83%
06:00 0°C° 0.2 mm 8 m/s 741 mm Hg 86%
07:00 0°C° 0.2 mm 8 m/s 741 mm Hg 89%
08:00 +1°C° 0.3 mm 9 m/s 741 mm Hg 85%
09:00 +1°C° 0.3 mm 9 m/s 741 mm Hg 81%
10:00 +2°C° 0.3 mm 10 m/s 741 mm Hg 77%
11:00 +2°C° 0.2 mm 11 m/s 742 mm Hg 74%
12:00 +3°C° 0.2 mm 11 m/s 742 mm Hg 72%
13:00 +3°C° 0.2 mm 12 m/s 742 mm Hg 69%
14:00 +3°C° 0.2 mm 11 m/s 743 mm Hg 70%
15:00 +3°C° 0.2 mm 11 m/s 743 mm Hg 71%
16:00 +3°C° 0.2 mm 10 m/s 743 mm Hg 72%
17:00 +2°C° 0.1 mm 9 m/s 743 mm Hg 76%
18:00 +2°C° 0.1 mm 8 m/s 744 mm Hg 79%
19:00 +2°C° 0.1 mm 7 m/s 744 mm Hg 82%
20:00 +2°C° 0 mm 6 m/s 744 mm Hg 84%
21:00 +2°C° 0 mm 6 m/s 744 mm Hg 86%
22:00 +1°C° 0 mm 6 m/s 744 mm Hg 88%
23:00 +1°C° 0 mm 6 m/s 744 mm Hg 88%

13 Marzo, Sabato

Tempo Temperatura Precipitazioni Vento Pressione Umidità
00:00 +1°C° 0 mm 6 m/s 743 mm Hg 89%
01:00 +1°C° 0 mm 6 m/s 743 mm Hg 90%
02:00 +1°C° 0 mm 6 m/s 743 mm Hg 89%
03:00 +1°C° 0 mm 6 m/s 743 mm Hg 89%
04:00 +1°C° 0 mm 6 m/s 742 mm Hg 88%
05:00 +1°C° 0 mm 5 m/s 742 mm Hg 89%
06:00 0°C° 0 mm 5 m/s 742 mm Hg 90%
07:00 0°C° 0 mm 5 m/s 742 mm Hg 92%
08:00 +1°C° 0 mm 6 m/s 741 mm Hg 88%
09:00 +2°C° 0 mm 6 m/s 741 mm Hg 85%
10:00 +3°C° 0 mm 7 m/s 741 mm Hg 82%
11:00 +2°C° 0.3 mm 7 m/s 740 mm Hg 86%
12:00 +2°C° 0.3 mm 7 m/s 739 mm Hg 91%
13:00 0°C° 0.3 mm 7 m/s 738 mm Hg 95%
14:00 +2°C° 0.5 mm 6 m/s 738 mm Hg 95%
15:00 +2°C° 0.5 mm 5 m/s 737 mm Hg 94%
16:00 +3°C° 0.5 mm 5 m/s 736 mm Hg 94%
17:00 +2°C° 0.7 mm 5 m/s 736 mm Hg 94%
18:00 +3°C° 0.7 mm 4 m/s 736 mm Hg 95%
19:00 +3°C° 0.7 mm 4 m/s 736 mm Hg 95%
20:00 +3°C° 0.2 mm 4 m/s 736 mm Hg 94%
21:00 +1°C° 0.2 mm 4 m/s 736 mm Hg 94%
22:00 +1°C° 0.2 mm 4 m/s 736 mm Hg 93%
23:00 +1°C° 0 mm 4 m/s 736 mm Hg 93%

14 Marzo, Domenica

Tempo Temperatura Precipitazioni Vento Pressione Umidità
00:00 +1°C° 0 mm 4 m/s 736 mm Hg 93%
01:00 0°C° 0 mm 4 m/s 736 mm Hg 93%
02:00 +1°C° 0 mm 4 m/s 736 mm Hg 93%
03:00 +1°C° 0 mm 4 m/s 736 mm Hg 93%
04:00 +1°C° 0 mm 4 m/s 736 mm Hg 93%
05:00 +1°C° 0.1 mm 4 m/s 736 mm Hg 93%
06:00 +1°C° 0.1 mm 4 m/s 737 mm Hg 94%
07:00 +2°C° 0.1 mm 3 m/s 737 mm Hg 94%
08:00 +3°C° 0 mm 4 m/s 737 mm Hg 91%
09:00 +3°C° 0 mm 4 m/s 738 mm Hg 89%
10:00 +4°C° 0 mm 4 m/s 739 mm Hg 86%
11:00 +3°C° 0.2 mm 5 m/s 739 mm Hg 83%
12:00 +3°C° 0.2 mm 6 m/s 740 mm Hg 80%
13:00 +3°C° 0.2 mm 6 m/s 741 mm Hg 77%
14:00 +3°C° 0 mm 6 m/s 741 mm Hg 75%
15:00 +3°C° 0 mm 6 m/s 742 mm Hg 74%
16:00 +3°C° 0 mm 5 m/s 743 mm Hg 72%
17:00 +3°C° 0 mm 4 m/s 743 mm Hg 77%
18:00 +3°C° 0 mm 4 m/s 744 mm Hg 82%
19:00 +2°C° 0 mm 3 m/s 745 mm Hg 87%
20:00 +2°C° 0 mm 3 m/s 745 mm Hg 86%
21:00 +1°C° 0 mm 4 m/s 746 mm Hg 85%
22:00 0°C° 0 mm 4 m/s 747 mm Hg 85%
23:00 0°C° 0 mm 4 m/s 747 mm Hg 85%
Mostrare altro

Abbiamo bisogno del tuo consenso

Meteoprog e i nostri fornitori di servizi possono memorizzare e accedere a dati personali come cookie, identificatori di dispositivi o altre tecnologie simili sul tuo dispositivo e possono elaborare tali dati per personalizzare i contenuti e gli annunci, nonché fornire funzionalità dei social media e analizzarne il traffico.

  • Archiviare e/o accedere alle informazioni sul tuo dispositivo

    Cookie, identificatori di dispositivi o altre informazioni possono essere memorizzati o resi accessibili sul tuo dispositivo per le finalità sopra indicate.

  • Annunci e contenuti personalizzati, misurazione di annunci e contenuti, approfondimenti sul pubblico e sviluppo di prodotti

    Gli annunci e i contenuti possono essere personalizzati in base a un profilo. È possibile aggiungere più dati per personalizzare meglio annunci e contenuti. È possibile misurare il rendimento degli annunci e dei contenuti. È possibile ricavare informazioni sul pubblico che ha visto gli annunci e i contenuti. Tali dati possono essere utilizzati per sviluppare o migliorare l'esperienza, i sistemi e il software dell'utente.

Cliccando su “Accetto”, acconsenti all'uso di cookie, identificatori di dispositivo, web beacon o altre tecnologie simili. Puoi modificare le impostazioni nel browser del tuo dispositivo.

Per determinati scopi, è possibile fare affidamento su interessi legali, piuttosto che sul consenso. Puoi approfondire questo argomento consultando la nostra Informativa sulla privacy e sui cookie.